Location: Cantaing
(50.1487°N, 3.1675°E)
Time: 09:20:41
(UTC+00:00)

YAOGAN 1 - Pass Details

Date: 14 January 2026
Orbit: 605 x 607 km, 97.8° (Epoch: 18 February)

Event Time Altitude Azimuth Distance (km) Brightness Sun altitude
Rises 06:54:16 0° 17° (NNE) 2,877 5.9 -7.4°
Reaches altitude 10° 06:56:31 10° 22° (NNE) 1,968 5.1 -7.1°
Maximum altitude 07:00:42 52° 100° (E) 756 3.5 -6.5°
Drops below altitude 10° 07:04:50 10° 177° (S) 1,950 5.5 -5.9°
Sets 07:07:03 0° 183° (S) 2,848 6.3 -5.6°
